Location: Bayshore Village Mobile Home Park
(26.6945°N, 81.8642°W)
Time: 15:31:56
(UTC+00:00)

Cosmos 773 Rocket - Pass Details

Date: 17 June 2021
Orbit: 746 x 776 km, 74.1° (Epoch: 26 July)

Event Time Altitude Azimuth Distance (km) Brightness Sun altitude
Exits shadow 09:17:38 21° 208° (SSW) 1,702 5.3 -15.3°
Maximum altitude 09:21:12 66° 286° (WNW) 842 4.0 -14.7°
Drops below altitude 10° 09:26:27 10° 9° (N) 2,323 7.1 -13.8°
Sets 09:28:52 0° 12° (NNE) 3,251 8.0 -13.3°
